Theta_e
299 294 292 295 296 296 295 293 293 297 301 300 298 299 303 306 304 305 307 307 306 307 308 310 312 312 315 315 316 317 316 316 318 317 316 317 317 318 320 323 324 324 325 322
295 291 299 301 299 296 295 293 294 298 302 299 298 298 302 304 304 306 307 306 305 306 309 311 311 312 314 315 316 316 317 318 318 316 318 318 317 320 320 321 326 327 325 323
290 294 302 301 297 296 295 293 294 295 299 300 298 296 299 304 304 306 305 305 306 307 308 311 311 311 313 316 316 317 317 318 318 318 318 318 318 319 319 319 320 321 323 324
292 298 298 298 295 296 292 299 298 296 294 290 297 287 295 299 301 302 304 303 305 307 309 312 312 310 313 315 317 318 318 317 317 319 317 316 316 315 316 317 318 319 322 323
291 294 294 294 295 298 295 300 298 297 294 291 294 289 293 297 298 300 302 302 303 306 309 311 311 312 313 314 317 317 318 316 318 318 317 318 315 316 317 317 316 317 319 322
293 299 297 296 300 300 300 296 295 294 291 286 293 290 292 295 298 300 302 304 305 305 308 310 311 312 312 314 316 316 316 317 318 318 318 317 316 315 314 315 315 315 317 320
292 293 297 298 295 297 296 290 283 280 283 284 293 290 294 299 301 303 303 303 304 306 309 310 310 310 311 313 315 314 314 315 317 319 319 317 317 316 314 314 315 314 315 315
287 285 293 298 295 292 293 293 285 280 281 285 293 289 295 301 304 305 305 303 306 306 309 310 311 311 311 313 314 315 314 315 314 316 318 316 318 315 314 318 316 315 315 315
287 288 297 298 298 297 292 290 295 287 289 286 289 294 299 301 302 304 304 305 304 306 309 311 311 310 311 312 312 314 313 312 312 316 318 317 318 316 316 316 316 316 316 318
291 285 295 297 298 297 292 295 286 284 280 279 287 289 291 296 299 303 303 303 304 306 309 311 311 309 310 312 312 312 315 313 312 315 317 320 321 319 317 317 317 316 317 318
290 289 290 295 292 291 289 290 288 290 288 282 281 287 296 298 300 303 303 304 305 307 310 311 310 309 310 310 310 310 314 312 313 315 315 322 321 321 319 318 318 318 317 319
293 288 286 290 294 298 295 292 292 287 285 287 287 290 300 299 300 304 304 305 305 308 310 311 310 308 307 308 307 309 313 312 313 315 315 321 322 321 319 318 318 318 318 319
292 287 282 285 290 293 291 293 293 291 289 287 286 290 301 301 300 306 304 305 307 308 308 308 308 309 308 307 307 311 312 312 312 314 316 321 320 320 319 318 319 319 319 320
293 288 287 284 287 292 290 292 293 292 288 289 290 291 297 301 301 304 304 305 307 309 310 309 309 309 308 308 309 311 312 312 313 313 319 319 319 320 319 319 319 320 321 321
288 283 290 293 293 294 294 293 293 292 293 290 293 293 296 302 303 306 306 305 307 308 309 310 309 308 308 307 309 311 313 311 313 313 318 318 318 320 320 319 319 321 321 321
288 282 289 291 293 293 291 294 295 295 295 295 295 294 299 304 307 307 307 307 307 308 310 311 311 309 309 310 310 311 312 310 312 313 318 319 318 321 321 318 319 320 320 321
285 285 284 285 293 291 287 292 294 295 298 297 292 296 300 301 307 308 307 308 308 310 311 311 311 310 310 311 312 310 311 310 312 313 317 319 319 321 320 319 319 318 315 316
286 284 285 282 288 281 292 298 298 296 299 299 297 299 302 303 310 311 312 310 309 311 312 312 313 312 310 311 312 311 310 312 313 311 315 316 318 319 319 318 317 313 313 314
292 286 282 281 283 289 295 298 295 294 295 300 300 300 302 303 306 305 312 313 312 312 313 314 315 314 311 310 312 311 309 312 313 312 313 314 319 316 316 316 315 312 312 311
294 290 285 285 280 281 292 298 303 302 292 302 305 300 300 304 300 303 310 312 312 312 314 314 315 314 311 310 312 311 308 312 312 313 314 313 319 317 316 316 314 312 311 311
287 285 282 283 282 291 296 299 301 291 290 297 304 305 300 303 306 309 312 313 313 312 313 314 314 312 311 311 312 311 308 311 314 315 314 312 317 318 316 315 315 313 312 311
285 286 288 287 284 285 297 297 291 293 297 298 299 304 302 306 306 308 312 313 312 310 312 314 314 312 312 312 313 311 308 311 314 314 314 312 314 321 318 316 315 314 312 309
285 287 287 290 291 297 297 295 298 298 297 298 298 301 307 306 304 308 311 313 313 312 313 315 314 311 312 312 314 312 311 309 311 312 312 310 312 315 319 316 315 315 313 310
289 293 290 290 296 296 297 297 298 300 298 300 301 302 307 305 304 307 312 313 314 313 313 315 314 311 310 313 314 314 312 310 310 310 310 311 312 313 318 319 318 318 315 313
291 292 289 290 295 296 298 296 298 299 300 301 302 302 306 309 309 307 311 314 315 314 314 316 314 312 312 313 314 315 313 311 309 309 308 308 312 314 318 319 318 319 319 317
293 289 287 287 294 294 295 298 299 299 299 301 301 302 306 306 312 310 310 315 316 315 316 316 315 314 313 314 314 314 316 313 311 309 308 307 311 315 319 319 311 297 300 302
Wind_Speed
10 9 21 20 20 12 13 12 18 17 5 7 9 10 17 19 9 16 16 17 13 12 2 7 11 13 13 9 9 8 9 7 4 2 2 1 3 2 2 3 5 5 4 4
7 27 16 12 14 16 11 9 18 14 11 5 12 15 16 17 14 16 21 14 11 3 4 7 11 13 13 12 9 8 8 7 4 2 2 2 2 3 2 2 3 4 5 6
26 17 15 19 14 17 17 19 18 20 6 7 11 12 17 18 8 10 8 5 6 11 12 13 15 13 10 12 10 9 8 8 4 4 2 1 1 1 2 2 2 1 3 4
18 23 17 21 21 19 19 18 19 17 8 9 4 7 6 8 11 7 9 7 9 8 7 12 15 10 12 9 8 8 8 7 5 6 2 2 2 1 1 2 1 1 1 2
16 19 26 18 29 20 19 12 12 8 8 5 15 4 6 4 10 11 11 9 9 7 10 14 14 12 7 8 8 7 7 6 6 5 4 3 1 1 1 1 2 1 2 0
20 9 19 27 10 17 8 3 3 6 1 8 21 5 9 6 9 6 6 6 4 7 10 9 9 9 7 7 7 7 8 6 6 4 3 4 3 3 1 0 1 1 1 2
8 21 4 10 20 10 11 7 3 4 4 7 8 6 16 10 10 12 11 5 8 8 11 14 15 10 8 8 8 7 7 6 4 4 5 4 5 4 3 2 1 1 1 1
13 11 27 11 19 13 22 16 8 7 5 5 6 8 13 9 12 10 9 7 9 9 9 12 13 11 9 9 8 8 8 5 5 5 5 3 5 3 2 1 1 2 2 3
13 15 2 22 9 19 12 17 12 4 1 2 4 8 9 3 1 2 6 8 9 9 11 13 11 9 9 9 9 9 7 4 5 6 5 4 4 4 3 3 2 2 3 2
2 2 9 14 18 17 10 10 9 4 5 3 5 5 8 3 2 3 6 8 7 7 9 10 9 9 7 8 7 6 7 8 5 6 5 4 5 5 4 3 4 3 3 2
3 3 5 10 15 23 7 15 3 8 6 7 2 8 9 9 9 11 9 8 11 12 12 12 9 8 8 7 7 7 6 6 5 5 3 5 5 5 4 3 3 3 3 3
7 5 10 12 4 18 24 19 20 9 9 2 5 13 5 8 10 9 9 8 7 8 12 10 11 9 8 8 7 7 6 6 6 4 4 4 5 5 4 4 4 3 4 3
9 6 1 4 5 4 15 23 15 6 4 6 7 8 3 5 7 11 10 8 9 9 9 8 8 10 9 8 7 7 7 7 6 5 5 5 5 5 4 4 4 3 4 4
5 5 12 18 4 5 5 17 17 14 10 10 11 5 3 3 7 7 7 8 11 12 13 11 9 9 9 9 8 7 6 6 6 5 6 6 5 5 5 5 5 4 4 5
3 5 8 17 21 11 4 11 20 21 20 16 15 10 7 8 10 15 9 8 10 11 12 13 12 10 9 8 7 7 6 7 6 6 6 6 5 4 6 5 5 5 4 3
6 6 10 10 15 23 23 8 16 20 14 11 8 9 8 7 9 7 11 13 14 15 15 14 12 11 11 11 10 7 7 7 7 7 7 5 6 5 6 6 5 5 5 4
3 4 11 8 13 9 17 28 15 9 13 15 10 10 8 4 11 13 11 14 17 17 17 16 17 15 13 12 11 9 8 7 7 7 6 6 6 6 6 6 5 4 5 4
7 4 4 7 2 10 13 9 18 14 8 12 4 10 14 12 18 16 16 20 15 15 17 16 15 13 12 10 9 8 8 8 8 7 7 6 6 6 6 6 6 5 3 5
13 6 3 3 5 5 6 6 4 11 10 8 11 8 10 6 6 2 11 15 21 20 19 15 14 15 12 13 11 10 9 9 9 8 7 7 6 7 6 6 6 3 5 3
12 15 6 2 4 8 4 18 16 11 8 12 14 9 9 10 9 8 12 12 11 10 14 15 13 12 12 12 11 12 11 11 11 9 9 7 7 7 7 7 7 3 3 5
7 3 8 3 5 3 18 21 19 10 5 18 17 15 11 10 12 18 14 16 17 16 16 13 14 15 16 13 13 13 12 14 14 11 8 8 8 10 7 7 5 6 5 5
3 6 3 4 5 3 22 8 10 7 10 14 18 14 10 15 9 7 17 18 17 14 13 15 14 14 13 14 15 14 15 14 12 11 10 8 8 8 7 8 5 6 7 6
4 3 4 4 3 1 7 4 5 5 8 13 17 20 12 13 8 10 13 17 18 18 17 16 15 14 14 15 17 16 14 12 12 12 11 8 8 7 9 8 7 5 6 6
3 4 2 8 4 11 10 4 7 12 11 15 15 17 10 8 6 10 12 13 14 13 15 14 14 14 14 15 16 17 14 14 14 13 12 9 10 7 6 6 7 7 6 5
3 3 4 5 9 13 1 17 16 18 16 16 18 16 13 9 7 3 13 15 15 16 13 15 16 15 16 16 16 13 14 15 14 13 11 10 10 11 8 7 7 8 8 10
2 1 1 1 14 8 10 13 19 15 16 17 18 20 18 14 10 5 7 15 15 15 14 14 15 15 15 16 15 14 15 16 15 12 10 9 9 8 8 7 3 8 3 11
Wind_Direction
177 195 209 201 209 216 228 233 247 258 213 232 239 252 274 282 287 279 276 264 234 228 151 149 144 144 143 146 147 163 149 180 145 179 215 298 258 285 278 239 235 222 204 220
182 228 208 207 209 218 233 245 255 282 264 246 275 268 270 283 276 271 267 256 242 104 105 134 146 151 158 150 156 153 162 169 174 165 207 179 221 259 256 281 253 222 218 227
203 221 195 206 212 216 224 229 247 251 301 226 278 282 278 279 287 277 246 214 174 186 177 162 161 155 149 155 160 159 168 168 177 190 129 75 316 337 2 327 287 265 233 237
229 219 181 204 223 211 231 221 241 256 277 270 115 288 295 279 289 285 266 217 233 200 144 159 158 155 158 164 147 150 159 163 185 179 146 162 185 277 259 264 291 322 282 160
203 196 221 222 218 204 238 224 244 255 257 301 270 266 254 267 287 265 268 235 231 187 157 160 154 150 162 140 154 156 156 170 188 168 144 158 168 209 316 302 61 354 348 130
221 199 205 223 202 212 233 229 288 265 227 252 264 160 275 227 225 264 261 294 117 130 117 115 122 140 141 132 140 145 160 188 188 165 174 165 151 137 181 212 81 3 314 30
187 229 222 174 217 208 192 110 277 315 198 220 233 179 239 257 245 246 249 165 138 130 125 140 155 153 143 150 151 155 166 192 175 192 172 161 154 151 186 184 166 118 126 101
190 212 210 187 201 189 209 185 174 199 183 214 179 236 252 242 258 231 238 143 127 137 139 158 160 156 153 156 157 163 179 183 170 193 185 149 156 161 186 155 133 170 128 150
200 232 216 197 188 182 198 205 178 0 280 73 209 285 322 268 306 206 149 142 155 150 156 160 159 157 154 158 167 172 177 173 186 188 173 172 157 173 161 114 108 147 120 156
278 160 215 206 199 211 157 155 183 188 226 219 265 254 233 257 198 192 158 163 135 133 145 161 156 158 163 164 167 171 178 185 190 171 195 172 162 185 159 127 135 136 125 141
267 146 300 154 202 194 161 231 153 156 184 174 180 257 211 213 186 190 214 176 164 162 167 165 156 164 164 157 158 177 182 179 187 175 201 166 149 174 168 147 156 167 146 155
279 206 243 216 281 186 200 204 211 196 212 208 161 257 227 209 190 169 197 178 153 166 166 158 159 151 157 168 162 179 185 186 193 181 184 159 155 154 161 152 166 169 147 143
327 279 214 280 274 187 203 203 199 204 93 210 153 259 249 215 195 189 175 163 154 161 145 145 149 161 171 175 166 172 179 188 174 164 141 130 149 144 150 143 148 160 142 133
323 268 235 220 194 171 166 197 196 191 208 216 231 261 213 147 163 169 165 173 163 167 162 159 162 170 174 181 167 169 182 182 163 160 138 147 149 154 145 131 151 146 139 132
25 268 273 259 238 273 212 175 199 204 208 195 230 203 215 191 188 200 160 140 146 159 166 173 172 175 176 178 171 168 172 172 161 155 150 174 129 147 125 126 146 125 119 126
356 286 328 258 234 230 252 257 204 205 208 218 175 218 200 190 97 142 177 163 175 178 179 180 172 175 180 184 181 168 171 173 158 157 168 164 135 146 134 128 142 141 128 123
258 333 352 276 223 221 249 238 238 221 200 187 179 214 149 134 174 180 179 186 183 182 181 181 179 180 184 185 178 172 173 158 162 161 169 162 159 156 150 136 132 129 131 124
239 256 218 277 211 198 247 200 218 220 217 216 179 174 176 175 196 189 192 186 184 184 182 189 181 178 180 176 178 155 148 165 167 166 170 163 158 145 146 140 138 125 107 112
221 198 246 244 212 301 200 23 164 167 253 210 228 196 194 160 108 254 205 190 184 185 187 186 180 176 167 171 169 153 155 162 168 174 175 167 151 140 152 153 153 140 123 119
323 175 186 321 230 193 30 324 323 304 196 356 351 296 154 133 166 227 182 187 192 195 174 176 176 164 165 174 162 158 165 164 180 181 182 169 150 152 160 154 160 154 134 136
344 142 229 300 284 331 346 322 301 134 273 323 326 317 278 181 190 198 181 185 182 177 173 161 161 169 179 162 162 171 167 180 185 178 168 166 159 158 159 146 148 139 131 125
306 311 164 177 262 278 344 14 55 305 311 316 319 312 288 254 190 165 175 178 169 156 149 162 169 176 168 166 168 172 184 183 173 167 170 172 165 162 157 152 145 143 137 141
250 313 327 322 45 31 329 99 268 280 310 325 312 309 299 263 234 173 181 176 179 170 169 169 171 165 166 172 176 179 187 166 168 166 175 172 170 163 160 158 154 142 150 150
250 312 313 316 90 309 290 271 337 349 323 320 317 310 319 284 205 211 167 179 169 168 165 164 159 167 174 177 183 189 165 168 164 173 178 171 172 168 164 168 166 165 165 163
244 280 342 302 304 330 53 336 337 329 327 323 333 331 323 341 13 241 182 177 177 173 164 164 170 172 182 177 181 174 169 169 170 174 175 175 182 181 177 184 179 182 189 179
221 272 352 281 290 287 276 298 312 311 319 326 337 332 351 354 1 313 250 177 174 174 165 169 176 171 175 180 178 173 171 175 171 175 175 176 176 180 183 176 150 40 9 196